Location: Nashville
(36.1660°N, 86.7840°W)
Time: 23:57:44
(UTC-05:00)

Vanguard 2 - Pass Details

Date: 01 July 2022
Orbit: 552 x 2934 km, 32.9° (Epoch: 10 August)

Event Time Altitude Azimuth Distance (km) Brightness Sun altitude
Rises 21:14:40 0° 264° (W) 4,496 12.2 -11.8°
Reaches altitude 10° 21:18:19 10° 262° (W) 3,135 11.2 -12.3°
Maximum altitude 21:25:24 64° 183° (S) 911 7.7 -13.4°
Enters shadow 21:28:57 18° 105° (ESE) 1,676 8.7 -13.9°
